[[{"header":{"parameterUnit":"m.s-1","parameterCategory":1,"la1":30.2991,"la2":30.254,"lo1":-89.0895,"lo2":-89.0444,"dy":0.0017,"dx":0.0017,"nx":28,"ny":28,"refTime":"2025-02-24T09:00:00:Z","depth":0,"parameterNumber":2,"parameterNumberName":"U-component_of_WINDS"},"data":[0,0,0,0,0,0,0,0,0,0,0,0,0,0,0,0,0,0,0,0,0,0,0,0,0,0,0,0,0,0,0,0,0,0,0,0,0,0,0,0,0,0,0,0,0,0,0,0,0,0,0,0,0,0,0,0,0,0,-0.0574,-0.0574,0,-0.065,-0.0651,-0.0652,-0.0661,-0.0661,-0.066,-0.0659,-0.0742,-0.0745,-0.0748,0,0,0,0,0,0,0,0,0,0,0,0,0,-0.044,-0.0442,-0.0574,-0.0574,-0.0575,-0.065,-0.0651,-0.0652,-0.0661,-0.0661,-0.066,-0.0659,-0.0741,-0.0745,-0.0748,0,0,0,0,0,0,0,0,0,0,0,0,0,-0.0505,-0.0443,-0.0573,-0.0589,-0.0591,-0.065,-0.0651,-0.0652,-0.0662,-0.0661,-0.0659,-0.0658,-0.074,-0.0744,-0.0749,-0.0798,0,0,-0.0762,-0.0764,0,0,0,0,0,0,0,0,-0.0502,-0.051,-0.0586,-0.0588,-0.0591,-0.0645,-0.0634,-0.0701,-0.0662,-0.0635,-0.0659,-0.0658,-0.0711,-0.0718,-0.0735,-0.0802,-0.0806,-0.0762,-0.0765,-0.0767,-0.0768,0,0,0,0,0,0,0,-0.0497,-0.0507,-0.0604,-0.0587,-0.059,-0.0594,-0.0602,-0.0647,-0.0679,-0.0637,-0.0638,-0.0647,-0.0712,-0.073,-0.0737,-0.0807,-0.0762,-0.0766,-0.0769,-0.0771,-0.092,-0.0921,0,0,0,0,0,0,-0.0489,-0.0503,-0.0602,-0.0606,-0.0542,-0.0597,-0.0606,-0.0629,-0.0678,-0.0684,-0.0648,-0.0647,-0.0724,-0.0732,-0.074,-0.0802,-0.0767,-0.0771,-0.0773,-0.0918,-0.092,-0.0921,0,0,0,0,0,0,-0.0486,-0.0498,-0.0598,-0.0555,-0.0568,-0.06,-0.0626,-0.0631,-0.0649,-0.0686,-0.0692,-0.066,-0.0723,-0.0734,-0.0783,-0.0805,-0.0773,-0.0777,-0.0917,-0.0919,-0.0921,-0.0925,0,0,0,0,0,0,-0.0482,-0.0496,-0.0515,-0.0555,-0.057,-0.064,-0.0627,-0.0633,-0.0656,-0.0656,-0.0699,-0.0706,-0.0723,-0.0777,-0.0788,-0.081,-0.078,-0.0915,-0.0918,-0.092,-0.0923,-0.0927,-0.093,0,0,0,0,0,-0.0477,-0.0514,-0.0516,-0.0527,-0.0594,-0.0641,-0.065,-0.0667,-0.0658,-0.0677,-0.0701,-0.0704,-0.08,-0.0782,-0.0794,-0.0818,-0.0914,-0.0917,-0.092,-0.0922,-0.0926,-0.093,0,0,0,0,0,0,-0.0477,-0.052,-0.0522,-0.0572,-0.0603,-0.0642,-0.0667,-0.0672,-0.0707,-0.0705,-0.0727,-0.0737,-0.0786,-0.0807,-0.0786,-0.0869,-0.0856,-0.0862,-0.0854,-0.0858,-0.0862,-0.0856,-0.0784,0,0,0,0,0,-0.0482,-0.0516,-0.0552,-0.0593,-0.0608,-0.0635,-0.0656,-0.0667,-0.07,-0.0713,-0.0741,-0.0774,-0.0811,-0.0836,-0.0873,-0.0926,-0.0936,-0.0949,-0.0952,-0.0955,-0.096,-0.099,-0.0996,-0.0931,-0.0931,-0.0931,0,0,-0.0495,-0.0522,-0.0542,-0.0594,-0.0618,-0.0654,-0.0646,-0.0684,-0.071,-0.072,-0.0768,-0.0789,-0.0828,-0.088,-0.0904,-0.0899,-0.098,-0.0959,-0.096,-0.0964,-0.0994,-0.1,-0.1006,-0.0933,-0.0933,-0.0933,0,0,-0.0535,-0.0559,-0.0596,-0.062,-0.0657,-0.0675,-0.0684,-0.0723,-0.0737,-0.0785,-0.0793,-0.0826,-0.089,-0.0917,-0.0939,-0.0989,-0.0994,-0.1001,-0.1019,-0.1049,-0.1054,-0.1059,-0.1077,-0.1084,-0.1005,-0.1005,-0.1005,0,-0.0547,-0.0599,-0.0615,-0.0652,-0.0675,-0.0683,-0.0721,-0.0745,-0.0793,-0.0809,-0.0802,-0.0882,-0.0909,-0.0967,-0.0979,-0.0997,-0.1009,-0.0996,-0.1052,-0.1057,-0.1061,-0.1079,-0.1086,-0.1006,-0.1006,-0.1006,-0.1006,0,-0.0611,-0.0647,-0.0673,-0.0717,-0.0742,-0.078,-0.0803,-0.0827,-0.0836,-0.0855,-0.0904,-0.0936,-0.0979,-0.0994,-0.1003,-0.1054,-0.105,-0.1047,-0.1035,-0.1068,-0.1085,-0.1092,-0.1007,-0.1007,-0.1006,-0.1006,0,0,-0.0655,-0.0706,-0.0715,-0.0735,-0.0776,-0.0805,-0.0844,-0.0884,-0.0905,-0.0938,-0.0971,-0.1025,-0.1022,-0.1048,-0.106,-0.1086,-0.1124,-0.108,-0.1081,-0.1088,-0.1183,-0.1186,-0.1193,-0.1127,-0.1129,-0.113,-0.118,0,-0.07,-0.0767,-0.0783,-0.0841,-0.0875,-0.0883,-0.0917,-0.0946,-0.0964,-0.0997,-0.1018,-0.1056,-0.1049,-0.1065,-0.109,-0.1114,-0.1144,-0.1111,-0.116,-0.1162,-0.1151,-0.1202,-0.1205,-0.1251,-0.1187,-0.1188,-0.1189,0,-0.0763,-0.0795,-0.0856,-0.0893,-0.0908,-0.0937,-0.0976,-0.1007,-0.1041,-0.1052,-0.108,-0.1089,-0.1131,-0.1116,-0.1174,-0.1151,-0.1172,-0.1187,-0.1189,-0.1196,-0.1178,-0.1211,-0.1267,-0.1274,-0.12,-0.1199,-0.1198,0,-0.079,-0.0848,-0.0892,-0.0909,-0.0953,-0.0974,-0.0993,-0.1025,-0.1049,-0.1083,-0.1099,-0.1138,-0.116,-0.119,-0.1211,-0.1198,-0.1268,-0.1254,-0.128,-0.128,-0.1295,-0.1294,-0.1356,-0.1307,-0.1307,-0.1307,-0.1307,0,-0.084,-0.0877,-0.0905,-0.0932,-0.0974,-0.0992,-0.1034,-0.1054,-0.1083,-0.1115,-0.1124,-0.1155,-0.1179,-0.1214,-0.123,-0.1276,-0.1286,-0.1298,-0.1302,-0.1297,-0.1296,-0.1312,-0.131,-0.1309,-0.1309,-0.1308,-0.1308,0,-0.0877,-0.0897,-0.0946,-0.0982,-0.0992,-0.1022,-0.1054,-0.1081,-0.1099,-0.114,-0.1151,-0.118,-0.1221,-0.1243,-0.1295,-0.1306,-0.1358,-0.136,-0.1346,-0.1348,-0.1373,-0.1371,-0.1448,-0.146,-0.1402,-0.1403,-0.1403,0,-0.0908,-0.0937,-0.0976,-0.0997,-0.1016,-0.1051,-0.1074,-0.1093,-0.1118,-0.1158,-0.1181,-0.1222,-0.1255,-0.132,-0.1347,-0.1387,-0.1391,-0.1415,-0.1397,-0.1392,-0.1392,-0.1391,-0.1394,-0.1419,-0.1419,-0.142,-0.142,0,-0.0961,-0.0969,-0.1002,-0.1038,-0.1066,-0.1096,-0.1125,-0.1143,-0.1167,-0.1194,-0.1235,-0.1261,-0.1312,-0.1354,-0.1395,-0.1417,-0.1423,-0.1425,-0.1433,-0.143,-0.1421,-0.1427,-0.1356,-0.1424,-0.1423,-0.1423,-0.1423,-0.1423,-0.0997,-0.1023,-0.1054,-0.109,-0.1114,-0.1142,-0.1169,-0.119,-0.1224,-0.1267,-0.1276,-0.1319,-0.1353,-0.1409,-0.1432,-0.1467,-0.1463,-0.1474,-0.1478,-0.1481,-0.1482,-0.1414,-0.1475,-0.1475,-0.1474,-0.1474,-0.1474,0,-0.1052,-0.1072,-0.1105,-0.1145,-0.1174,-0.1175,-0.1208,-0.1232,-0.127,-0.13,-0.1332,-0.138,-0.1419,-0.1449,-0.1489,-0.1512,-0.1516,-0.1522,-0.1521,-0.1526,-0.1483,-0.1472,-0.1518,-0.1518,-0.1518,-0.1518,-0.1518,-0.1518,-0.1083,-0.1127,-0.1139,-0.1195,-0.1216,-0.1257,-0.1276,-0.1301,-0.1325,-0.1377,-0.1409,-0.1427,-0.1458,-0.1501,-0.1538,-0.1545,-0.1561,-0.1567,-0.1575,-0.1534,-0.1529,-0.1525,-0.1515,-0.1569,-0.1569,-0.1616,-0.1616,-0.1616]},{"header":{"parameterUnit":"m.s-1","parameterCategory":1,"la1":30.2991,"la2":30.254,"lo1":-89.0895,"lo2":-89.0444,"dy":0.0017,"dx":0.0017,"nx":28,"ny":28,"refTime":"2025-02-24T09:00:00:Z","depth":0,"parameterNumber":3,"parameterNumberName":"V-component_of_WINDS"},"data":[0,0,0,0,0,0,0,0,0,0,0,0,0,0,0,0,0,0,0,0,0,0,0,0,0,0,0,0,0,0,0,0,0,0,0,0,0,0,0,0,0,0,0,0,0,0,0,0,0,0,0,0,0,0,0,0,0,0,-2.43,-2.4299,0,-2.4246,-2.4245,-2.4245,-2.4208,-2.4208,-2.4207,-2.4207,-2.4149,-2.4148,-2.4146,0,0,0,0,0,0,0,0,0,0,0,0,0,-2.4367,-2.4366,-2.43,-2.4299,-2.4298,-2.4246,-2.4245,-2.4244,-2.4208,-2.4208,-2.4207,-2.4207,-2.4149,-2.4148,-2.4146,0,0,0,0,0,0,0,0,0,0,0,0,0,-2.4328,-2.4366,-2.43,-2.4274,-2.4271,-2.4246,-2.4245,-2.4244,-2.4208,-2.4208,-2.4207,-2.4207,-2.415,-2.4148,-2.4146,-2.4142,0,0,-2.414,-2.4139,0,0,0,0,0,0,0,0,-2.4331,-2.4326,-2.4278,-2.4276,-2.4272,-2.4233,-2.4248,-2.421,-2.4208,-2.4232,-2.4207,-2.4207,-2.4177,-2.4173,-2.4164,-2.4139,-2.4136,-2.414,-2.4139,-2.4138,-2.4137,0,0,0,0,0,0,0,-2.4333,-2.4328,-2.4278,-2.4278,-2.4274,-2.4264,-2.4258,-2.424,-2.4207,-2.423,-2.4227,-2.4221,-2.4175,-2.4166,-2.4162,-2.4136,-2.414,-2.4138,-2.4137,-2.4136,-2.4104,-2.4104,0,0,0,0,0,0,-2.4341,-2.433,-2.428,-2.4277,-2.4301,-2.4263,-2.4256,-2.4246,-2.4207,-2.4201,-2.4222,-2.422,-2.4169,-2.4164,-2.416,-2.4152,-2.4138,-2.4136,-2.4135,-2.4103,-2.4104,-2.4104,0,0,0,0,0,0,-2.4342,-2.4336,-2.4282,-2.4303,-2.4295,-2.4262,-2.4251,-2.4245,-2.4235,-2.4201,-2.4195,-2.4218,-2.4169,-2.4162,-2.4146,-2.4149,-2.4135,-2.4133,-2.4103,-2.4103,-2.4104,-2.4136,0,0,0,0,0,0,-2.4344,-2.4337,-2.4336,-2.4303,-2.4294,-2.4271,-2.4251,-2.4244,-2.4232,-2.423,-2.4196,-2.419,-2.4168,-2.415,-2.4145,-2.4146,-2.4132,-2.4102,-2.4103,-2.4104,-2.4134,-2.4137,-2.414,0,0,0,0,0,-2.4347,-2.4347,-2.4336,-2.433,-2.4292,-2.4271,-2.4266,-2.4241,-2.4233,-2.4231,-2.4209,-2.4191,-2.415,-2.4148,-2.4142,-2.4143,-2.4102,-2.4103,-2.4104,-2.4133,-2.4137,-2.414,0,0,0,0,0,0,-2.438,-2.4342,-2.433,-2.4319,-2.4299,-2.4265,-2.4262,-2.4246,-2.4227,-2.4225,-2.4194,-2.4186,-2.4173,-2.4156,-2.4156,-2.4136,-2.4124,-2.4123,-2.4148,-2.4151,-2.4154,-2.4158,-2.413,0,0,0,0,0,-2.4386,-2.4374,-2.434,-2.4334,-2.4325,-2.4295,-2.4285,-2.4268,-2.4245,-2.4236,-2.4213,-2.419,-2.4172,-2.4161,-2.4142,-2.4131,-2.4123,-2.4129,-2.4132,-2.4134,-2.4134,-2.4127,-2.4129,-2.4106,-2.4106,-2.4106,0,0,-2.4399,-2.4376,-2.437,-2.434,-2.4323,-2.4309,-2.4288,-2.4275,-2.4264,-2.4233,-2.4217,-2.4199,-2.4172,-2.4159,-2.4152,-2.4144,-2.4139,-2.4135,-2.4137,-2.4136,-2.4128,-2.413,-2.4132,-2.4107,-2.4107,-2.4107,0,0,-2.4415,-2.4397,-2.439,-2.4372,-2.4346,-2.4326,-2.4324,-2.4293,-2.428,-2.4263,-2.424,-2.4226,-2.4195,-2.4177,-2.4163,-2.4172,-2.4154,-2.4166,-2.4181,-2.4174,-2.4175,-2.4177,-2.418,-2.4181,-2.4166,-2.4166,-2.4166,0,-2.4434,-2.4414,-2.4388,-2.4376,-2.4363,-2.4335,-2.4327,-2.4311,-2.4279,-2.4271,-2.4263,-2.4224,-2.4204,-2.4185,-2.4187,-2.4177,-2.4174,-2.417,-2.4177,-2.4179,-2.418,-2.4182,-2.4183,-2.4168,-2.4168,-2.4168,-2.4167,0,-2.4438,-2.4424,-2.4421,-2.4392,-2.4379,-2.4369,-2.4341,-2.433,-2.4313,-2.4294,-2.4277,-2.4251,-2.4227,-2.4221,-2.4205,-2.42,-2.4196,-2.4184,-2.417,-2.4184,-2.4185,-2.4186,-2.417,-2.417,-2.4169,-2.4169,0,0,-2.4474,-2.4431,-2.443,-2.4417,-2.4385,-2.4373,-2.4361,-2.4338,-2.4329,-2.4308,-2.4297,-2.4271,-2.4259,-2.4244,-2.4224,-2.4218,-2.4226,-2.4206,-2.4205,-2.4211,-2.4219,-2.4229,-2.4231,-2.4214,-2.4214,-2.4214,-2.4221,0,-2.4485,-2.4464,-2.444,-2.4427,-2.4413,-2.4386,-2.4375,-2.4354,-2.4335,-2.432,-2.4299,-2.4281,-2.4266,-2.4257,-2.425,-2.4227,-2.4227,-2.4226,-2.4203,-2.4202,-2.4211,-2.4231,-2.4242,-2.425,-2.4222,-2.4222,-2.4222,0,-2.4496,-2.4477,-2.4463,-2.4432,-2.4425,-2.4416,-2.4393,-2.4379,-2.4353,-2.434,-2.4323,-2.4303,-2.4287,-2.4275,-2.4253,-2.4253,-2.4242,-2.4229,-2.4228,-2.4226,-2.4213,-2.4229,-2.4252,-2.4253,-2.4222,-2.4222,-2.4222,0,-2.4524,-2.4495,-2.4482,-2.4471,-2.4435,-2.4429,-2.4413,-2.4388,-2.4375,-2.4354,-2.4345,-2.4323,-2.431,-2.4292,-2.4266,-2.4259,-2.4246,-2.4232,-2.4234,-2.4235,-2.4233,-2.4234,-2.4255,-2.4225,-2.4225,-2.4225,-2.4225,0,-2.4539,-2.4532,-2.4494,-2.4487,-2.4476,-2.4448,-2.4438,-2.442,-2.4397,-2.4385,-2.4359,-2.4348,-2.4313,-2.4297,-2.4276,-2.4261,-2.4255,-2.4243,-2.4238,-2.4246,-2.4247,-2.4238,-2.4237,-2.4226,-2.4226,-2.4226,-2.4226,0,-2.4569,-2.4544,-2.4529,-2.4495,-2.4487,-2.4481,-2.4452,-2.4442,-2.4422,-2.4406,-2.4401,-2.4368,-2.4348,-2.432,-2.429,-2.4276,-2.4264,-2.4255,-2.4273,-2.427,-2.4273,-2.4273,-2.4289,-2.429,-2.4261,-2.4261,-2.4261,0,-2.4581,-2.4575,-2.4541,-2.4531,-2.4517,-2.4501,-2.4488,-2.446,-2.4447,-2.4417,-2.4412,-2.4389,-2.437,-2.4339,-2.4312,-2.4289,-2.4279,-2.4286,-2.4276,-2.4284,-2.4279,-2.428,-2.4279,-2.4289,-2.429,-2.429,-2.429,0,-2.4605,-2.4593,-2.4576,-2.4554,-2.454,-2.4522,-2.4502,-2.4495,-2.4462,-2.4449,-2.4428,-2.4413,-2.4383,-2.4361,-2.4335,-2.4317,-2.4298,-2.4294,-2.4293,-2.4301,-2.4312,-2.4306,-2.428,-2.4294,-2.4293,-2.4293,-2.4293,-2.4293,-2.4626,-2.4619,-2.4594,-2.4576,-2.4558,-2.454,-2.453,-2.4508,-2.4491,-2.4465,-2.4449,-2.4429,-2.4402,-2.4365,-2.4348,-2.4331,-2.4323,-2.4322,-2.4322,-2.4322,-2.4325,-2.4315,-2.4326,-2.4326,-2.4325,-2.4325,-2.4325,0,-2.4648,-2.4631,-2.4615,-2.4588,-2.4574,-2.4558,-2.4535,-2.4523,-2.4506,-2.4484,-2.4466,-2.4441,-2.442,-2.4391,-2.4367,-2.4359,-2.4349,-2.4353,-2.4354,-2.435,-2.4333,-2.4336,-2.4361,-2.4361,-2.4361,-2.4361,-2.4361,-2.4361,-2.4659,-2.4646,-2.463,-2.4607,-2.4589,-2.4571,-2.4559,-2.4542,-2.4523,-2.4498,-2.448,-2.4462,-2.4436,-2.441,-2.4389,-2.4381,-2.4373,-2.438,-2.4369,-2.4354,-2.4351,-2.4348,-2.4351,-2.4379,-2.4379,-2.4387,-2.4387,-2.4388]}]]